Regional Weather Roundup
Issued by NWS

Home | Current Version | Previous Version | Text Only | Print | Product List | Glossary On
Versions: 1 2 3 4 5 6 7 8 9 10 11 12 13 14 15 16 17 18 19 20 21 22 23 24 25 26 27 28 29 30 31 32 33 34 35 36 37 38 39 40 41 42 43 44 45 46 47 48 49 50
847
ASUS43 KBIS 200310
RWRND

NORTH DAKOTA REGIONAL WEATHER ROUNDUP
NATIONAL WEATHER SERVICE BISMARCK ND
900 PM CST MON FEB 19 2018

NOTE: "FAIR" INDICATES FEW OR NO CLOUDS BELOW 12,000 FEET WITH NO
SIGNIFICANT WEATHER AND/OR OBSTRUCTIONS TO VISIBILITY.


NDZ001>003-009>011-017-200400-
NORTHWEST NORTH DAKOTA

CITY           SKY/WX    TMP DP  RH WIND       PRES   REMARKS
WILLISTON      LGT SNOW   3  -2  79 CALM      30.15F
MINOT          CLOUDY     6   0  76 NW5       30.15F WCI  -3
MINOT AFB      CLOUDY     5  -4  65 CALM      30.15S
$$

NDZ018>021-031>035-040>046-200400-
SOUTHWEST NORTH DAKOTA

CITY           SKY/WX    TMP DP  RH WIND       PRES   REMARKS
BISMARCK       LGT SNOW   4  -1  80 NE8       30.16S WCI  -9
DICKINSON      LGT SNOW   2  -2  83 N3        30.06R FOG
GARRISON         N/A      3  -1  83 CALM      30.15S
HETTINGER ARPT LGT SNOW   0  -5  79 NE9       30.04F WCI -15
$$

NDZ004>008-012>016-024-026-027-054-200400-
NORTHEAST NORTH DAKOTA

CITY           SKY/WX    TMP DP  RH WIND       PRES   REMARKS
GRAND FORKS    CLOUDY     5  -4  66 N16       30.22S WCI -14
GRND FRKS AFB  CLOUDY     4  -5  66 N15       30.22S WCI -14
DEVILS LAKE    LGT SNOW   3  -2  78 N9        30.18S WCI -11
$$

NDZ022-023-025-028>030-036>039-047>053-200400-
SOUTHEAST NORTH DAKOTA

CITY           SKY/WX    TMP DP  RH WIND       PRES   REMARKS
FARGO          LGT SNOW   6   1  80 N24G32    30.11F WCI -16
JAMESTOWN      LGT SNOW   3  -1  83 N20       30.11F FOG     WCI -18
$$





USA.gov is the U.S. government's official web portal to all federal, state and local government web resources and services.